{"data":{"norad_id":68496,"intl_designator":"2026-067CJ","name":"ICEYE-X73","alt_names":[],"object_type":"PAYLOAD","status":"ACTIVE","operator":null,"country":"POR","launch_date":"2026-03-30","launch_site_code":"AFWTR","launch_vehicle":null,"mission":null,"orbit_class":"UNKNOWN","rcs_meters":null,"size_class":null,"mass_kg":null,"dimensions":null,"purposes":[],"wikipedia_slug":null,"has_3d_model":false,"image_url":null,"decayed_at":null,"tle_current":{"epoch":"2026-09-20T02:31:16.623264Z","epoch_age_seconds":103843,"freshness":"FRESH","line1":"1 68496U 26067CJ  26263.10505351  .00001593  00000+0  16036-3 0  9999","line2":"2 68496  97.7714 220.0877 0002370  35.8658 324.2720 14.92585966 25881","mean_motion":14.92585966,"eccentricity":0.000237,"inclination_deg":97.7714,"raan_deg":220.0877,"arg_perigee_deg":35.8658,"mean_anomaly_deg":324.272,"bstar":0.00016036,"rev_number":2588,"period_min":96.476855122729,"perigee_km":588.22436435488,"apogee_km":591.52720241421,"semimajor_km":6968.0127833845,"source":"CELESTRAK","updated_at":"2026-09-20T09:00:24.258956Z"}}}